| time (UTC) | temp F | wind direction | speed knots | gust knots | rain 1hr in | rain 24hr in | rain mn in | humidity % | barometer mb |
| 20260506233640 | 54 | 270 | 0.0 | 0.0 | 0.00 | 0.00 | 0.00 | 86 | 1010.2 |
| 20260506232640 | 54 | 338 | 0.0 | 0.0 | 0.00 | 0.00 | 0.00 | 86 | 1010.2 |
| 20260506231639 | 54 | 23 | 0.0 | 0.0 | 0.00 | 0.00 | 0.00 | 86 | 1009.8 |
| 20260506230638 | 54 | 270 | 0.0 | 0.0 | 0.00 | 0.00 | 0.00 | 86 | 1009.8 |
| 20260506225637 | 54 | 293 | 0.0 | 0.0 | 0.00 | 0.00 | 0.00 | 86 | 1009.8 |
| 20260506224636 | 54 | 270 | 0.0 | 0.0 | 0.00 | 0.00 | 0.00 | 85 | 1009.8 |
| 20260506223636 | 54 | 293 | 0.0 | 0.0 | 0.00 | 0.00 | 0.00 | 85 | 1009.8 |
| 20260506222635 | 55 | 270 | 0.0 | 0.0 | 0.00 | 0.00 | 0.00 | 84 | 1009.8 |
| 20260506221634 | 55 | 270 | 0.0 | 0.0 | 0.00 | 0.00 | 0.00 | 84 | 1009.8 |
| 20260506220633 | 55 | 270 | 0.0 | 0.0 | 0.00 | 0.00 | 0.00 | 83 | 1009.8 |
| 20260506215601 | 56 | 270 | 0.0 | 0.0 | 0.00 | 0.00 | 0.00 | 83 | 1009.8 |
| 20260506214601 | 56 | 113 | 0.0 | 0.0 | 0.00 | 0.00 | 0.00 | 82 | 1009.8 |
| 20260506213600 | 56 | 90 | 0.0 | 0.0 | 0.00 | 0.00 | 0.00 | 82 | 1009.8 |
| 20260506212559 | 57 | 135 | 0.0 | 0.0 | 0.00 | 0.00 | 0.00 | 81 | 1009.5 |
| 20260506211558 | 57 | 68 | 0.0 | 0.0 | 0.00 | 0.00 | 0.00 | 80 | 1009.5 |
| 20260506210557 | 57 | 225 | 0.0 | 0.0 | 0.00 | 0.00 | 0.00 | 80 | 1009.5 |
| 20260506205525 | 58 | 225 | 0.0 | 0.0 | 0.00 | 0.00 | 0.00 | 79 | 1009.5 |
| 20260506204525 | 58 | 158 | 0.0 | 0.0 | 0.00 | 0.00 | 0.00 | 79 | 1009.5 |
| 20260506203524 | 58 | 270 | 0.0 | 0.0 | 0.00 | 0.00 | 0.00 | 78 | 1009.1 |
| 20260506202523 | 58 | 293 | 0.0 | 0.0 | 0.00 | 0.00 | 0.00 | 77 | 1009.1 |
| 20260506201450 | 59 | 293 | 0.0 | 0.0 | 0.00 | 0.00 | 0.00 | 76 | 1008.8 |
| 20260506200449 | 59 | 293 | 0.0 | 0.0 | 0.00 | 0.00 | 0.00 | 75 | 1008.8 |
| 20260506195417 | 60 | 293 | 0.0 | 0.0 | 0.00 | 0.00 | 0.00 | 73 | 1008.5 |
| 20260506194417 | 61 | 68 | 0.0 | 0.0 | 0.00 | 0.00 | 0.00 | 72 | 1008.5 |
| 20260506193416 | 61 | 270 | 0.0 | 0.0 | 0.00 | 0.00 | 0.00 | 69 | 1008.1 |
| 20260506192415 | 62 | 248 | 0.0 | 0.0 | 0.00 | 0.00 | 0.00 | 68 | 1008.1 |
| 20260506191343 | 62 | 248 | 0.0 | 0.0 | 0.00 | 0.00 | 0.00 | 68 | 1007.8 |
| 20260506190342 | 63 | 248 | 0.0 | 0.0 | 0.00 | 0.00 | 0.00 | 68 | 1007.8 |
| 20260506185341 | 64 | 248 | 0.0 | 0.0 | 0.00 | 0.00 | 0.00 | 65 | 1007.8 |
| 20260506184340 | 65 | 203 | 0.0 | 0.0 | 0.00 | 0.00 | 0.00 | 63 | 1007.5 |
| 20260506183339 | 66 | 225 | 0.0 | 0.0 | 0.00 | 0.00 | 0.00 | 61 | 1007.5 |
| 20260506182338 | 66 | 270 | 0.0 | 0.0 | 0.00 | 0.00 | 0.00 | 61 | 1007.5 |
| 20260506181337 | 66 | 158 | 0.0 | 1.7 | 0.00 | 0.00 | 0.00 | 60 | 1007.1 |
| 20260506180336 | 67 | 173 | 1.7 | 11.3 | 0.00 | 0.00 | 0.00 | 59 | 1007.1 |
| 20260506175335 | 67 | 180 | 0.0 | 9.6 | 0.00 | 0.00 | 0.00 | 59 | 1007.1 |
| 20260506174335 | 67 | 180 | 5.2 | 7.0 | 0.00 | 0.00 | 0.00 | 58 | 1006.8 |
| 20260506173334 | 67 | 241 | 4.3 | 4.3 | 0.00 | 0.00 | 0.00 | 57 | 1006.8 |
| 20260506172333 | 68 | 248 | 1.7 | 7.8 | 0.00 | 0.00 | 0.00 | 58 | 1006.8 |
| 20260506171300 | 68 | 270 | 0.9 | 3.5 | 0.00 | 0.00 | 0.00 | 58 | 1006.8 |
| 20260506170259 | 68 | 270 | 2.6 | 3.5 | 0.00 | 0.00 | 0.00 | 59 | 1006.8 |
| 20260506165258 | 69 | 248 | 0.0 | 2.6 | 0.00 | 0.00 | 0.00 | 60 | 1006.8 |
| 20260506164226 | 69 | 270 | 2.6 | 6.1 | 0.00 | 0.00 | 0.00 | 60 | 1006.4 |
| 20260506163225 | 69 | 203 | 3.5 | 5.2 | 0.00 | 0.00 | 0.00 | 60 | 1006.4 |
| 20260506162224 | 70 | 162 | 4.3 | 5.2 | 0.00 | 0.00 | 0.00 | 59 | 1006.4 |
| 20260506161223 | 71 | 135 | 2.6 | 5.2 | 0.00 | 0.00 | 0.00 | 59 | 1006.8 |
| 20260506160143 | 71 | 180 | 5.2 | 5.2 | 0.00 | 0.00 | 0.00 | 59 | 1006.4 |
| 20260506155112 | 71 | 239 | 2.6 | 5.2 | 0.00 | 0.00 | 0.00 | 59 | 1006.4 |
| 20260506154111 | 71 | 158 | 5.2 | 5.2 | 0.00 | 0.00 | 0.00 | 61 | 1006.4 |
| 20260506153039 | 71 | 248 | 2.6 | 7.0 | 0.00 | 0.00 | 0.00 | 60 | 1006.4 |
| 20260506152038 | 71 | 248 | 3.5 | 3.5 | 0.00 | 0.00 | 0.00 | 62 | 1006.4 |
| 20260506151037 | 70 | 135 | 1.7 | 6.1 | 0.00 | 0.00 | 0.00 | 63 | 1006.4 |
| 20260506145934 | 70 | 162 | 1.7 | 6.1 | 0.00 | 0.00 | 0.00 | 64 | 1006.8 |
| 20260506144933 | 70 | 216 | 3.5 | 5.2 | 0.00 | 0.00 | 0.00 | 63 | 1006.8 |
| 20260506143932 | 70 | 100 | 2.6 | 9.6 | 0.00 | 0.00 | 0.00 | 62 | 1006.8 |
| 20260506142931 | 71 | 180 | 11.3 | 12.2 | 0.00 | 0.00 | 0.00 | 61 | 1006.8 |
| 20260506141859 | 71 | 278 | 3.5 | 3.5 | 0.00 | 0.00 | 0.00 | 60 | 1006.8 |
| 20260506140858 | 72 | 270 | 2.6 | 2.6 | 0.00 | 0.00 | 0.00 | 58 | 1006.8 |
| 20260506135858 | 72 | 170 | 1.7 | 8.7 | 0.00 | 0.00 | 0.00 | 58 | 1006.8 |
| 20260506134857 | 72 | 211 | 7.8 | 8.7 | 0.00 | 0.00 | 0.00 | 57 | 1006.8 |
| 20260506133856 | 73 | 113 | 0.9 | 6.1 | 0.00 | 0.00 | 0.00 | 54 | 1006.8 |
| 20260506132824 | 72 | 225 | 6.1 | 6.1 | 0.00 | 0.00 | 0.00 | 56 | 1006.8 |
| 20260506131752 | 72 | 135 | 0.0 | 13.9 | 0.00 | 0.00 | 0.00 | 57 | 1006.8 |
| 20260506130750 | 72 | 219 | 1.7 | 3.5 | 0.00 | 0.00 | 0.00 | 58 | 1006.8 |
| 20260506125750 | 72 | 182 | 4.3 | 6.1 | 0.00 | 0.00 | 0.00 | 58 | 1006.8 |
| 20260506124749 | 72 | 151 | 2.6 | 4.3 | 0.00 | 0.00 | 0.00 | 57 | 1007.1 |
| 20260506123717 | 71 | 266 | 1.7 | 7.8 | 0.00 | 0.00 | 0.00 | 59 | 1007.1 |
| 20260506122716 | 71 | 278 | 4.3 | 7.8 | 0.00 | 0.00 | 0.00 | 60 | 1007.1 |
| 20260506121644 | 71 | 248 | 0.0 | 7.0 | 0.00 | 0.00 | 0.00 | 61 | 1007.1 |
| 20260506120510 | 70 | 165 | 5.2 | 7.0 | 0.00 | 0.00 | 0.00 | 65 | 1007.1 |
| 20260506115509 | 69 | 203 | 2.6 | 7.0 | 0.00 | 0.00 | 0.00 | 65 | 1007.1 |
| 20260506114509 | 69 | 180 | 7.0 | 10.4 | 0.00 | 0.00 | 0.00 | 65 | 1007.1 |
| 20260506113508 | 70 | 159 | 8.7 | 9.6 | 0.00 | 0.00 | 0.00 | 64 | 1007.1 |
| 20260506112507 | 70 | 203 | 1.7 | 8.7 | 0.00 | 0.00 | 0.00 | 64 | 1007.1 |
| 20260506111507 | 70 | 225 | 5.2 | 9.6 | 0.00 | 0.00 | 0.00 | 63 | 1007.5 |
| 20260506110506 | 70 | 272 | 7.0 | 9.6 | 0.00 | 0.00 | 0.00 | 63 | 1007.5 |
| 20260506105505 | 69 | 189 | 8.7 | 9.6 | 0.00 | 0.00 | 0.00 | 66 | 1007.1 |
| 20260506104504 | 68 | 207 | 7.8 | 9.6 | 0.00 | 0.00 | 0.00 | 66 | 1007.5 |
| 20260506103503 | 68 | 184 | 5.2 | 6.1 | 0.00 | 0.00 | 0.00 | 69 | 1007.5 |
| 20260506102502 | 68 | 180 | 4.3 | 7.0 | 0.00 | 0.00 | 0.00 | 70 | 1007.5 |
| 20260506101501 | 68 | 238 | 6.1 | 7.0 | 0.00 | 0.00 | 0.00 | 69 | 1007.5 |
| 20260506100500 | 67 | 158 | 0.0 | 6.1 | 0.00 | 0.00 | 0.00 | 68 | 1007.8 |
| 20260506095459 | 67 | 211 | 8.7 | 10.4 | 0.00 | 0.00 | 0.00 | 68 | 1007.8 |
| 20260506094459 | 67 | 161 | 5.2 | 7.0 | 0.00 | 0.00 | 0.00 | 68 | 1007.8 |
| 20260506093457 | 68 | 98 | 1.7 | 5.2 | 0.00 | 0.00 | 0.00 | 68 | 1007.8 |
| 20260506092456 | 68 | 113 | 4.3 | 5.2 | 0.00 | 0.00 | 0.00 | 69 | 1007.8 |
| 20260506091455 | 68 | 270 | 1.7 | 6.1 | 0.00 | 0.00 | 0.00 | 69 | 1007.8 |
| 20260506090454 | 68 | 203 | 2.6 | 2.6 | 0.00 | 0.00 | 0.00 | 70 | 1007.8 |
| 20260506085454 | 67 | 113 | 0.9 | 0.9 | 0.00 | 0.00 | 0.00 | 72 | 1007.8 |
| 20260506084453 | 67 | 225 | 0.0 | 3.5 | 0.00 | 0.00 | 0.00 | 74 | 1007.8 |
| 20260506083421 | 66 | 119 | 1.7 | 3.5 | 0.00 | 0.00 | 0.00 | 75 | 1007.8 |
| 20260506082420 | 65 | 248 | 1.7 | 1.7 | 0.00 | 0.00 | 0.00 | 77 | 1007.8 |
| 20260506081419 | 64 | 158 | 0.0 | 5.2 | 0.00 | 0.00 | 0.00 | 77 | 1007.8 |
| 20260506080348 | 64 | 158 | 5.2 | 5.2 | 0.00 | 0.00 | 0.00 | 78 | 1007.8 |
| 20260506073314 | 64 | 203 | 1.7 | 1.7 | 0.00 | 0.00 | 0.00 | 84 | 1007.8 |
| 20260506072313 | 63 | 248 | 0.0 | 0.0 | 0.00 | 0.00 | 0.00 | 86 | 1007.5 |
| 20260506071313 | 61 | 225 | 0.0 | 1.7 | 0.00 | 0.00 | 0.00 | 88 | 1007.5 |
| 20260506070312 | 60 | 270 | 0.0 | 0.9 | 0.00 | 0.00 | 0.00 | 90 | 1007.5 |
| 20260506062308 | 57 | 270 | 2.6 | 2.6 | 0.00 | 0.00 | 0.00 | 92 | 1007.1 |
| 20260506061236 | 56 | 270 | 0.0 | 2.6 | 0.00 | 0.00 | 0.00 | 92 | 1006.8 |
| 20260506060235 | 55 | 248 | 0.0 | 0.0 | 0.00 | 0.00 | 0.00 | 92 | 1006.8 |
| 20260506051059 | 55 | 203 | 0.0 | 0.0 | 0.00 | 0.00 | 0.00 | 92 | 1007.5 |
| 20260506045058 | 55 | 45 | 0.0 | 0.0 | 0.00 | 0.00 | 0.00 | 92 | 1007.8 |
| 20260506044057 | 56 | 293 | 0.0 | 0.0 | 0.00 | 0.00 | 0.00 | 92 | 1007.8 |
| 20260506043056 | 56 | 293 | 0.0 | 2.6 | 0.00 | 0.00 | 0.00 | 92 | 1007.8 |
| 20260506042055 | 56 | 270 | 0.0 | 1.7 | 0.00 | 0.00 | 0.00 | 92 | 1007.8 |
| 20260506041054 | 55 | 248 | 0.0 | 0.0 | 0.00 | 0.00 | 0.00 | 92 | 1007.8 |
| 20260506040022 | 55 | 293 | 0.0 | 0.0 | 0.00 | 0.00 | 0.00 | 92 | 1007.8 |
| 20260506035021 | 55 | 270 | 0.0 | 0.0 | 0.00 | 0.00 | 0.00 | 91 | 1007.8 |
| 20260506034020 | 56 | 270 | 0.0 | 0.0 | 0.00 | 0.00 | 0.00 | 91 | 1007.8 |
| 20260506033019 | 55 | 270 | 0.0 | 0.0 | 0.00 | 0.00 | 0.00 | 91 | 1007.8 |
| 20260506032018 | 55 | 270 | 0.0 | 0.0 | 0.00 | 0.00 | 0.00 | 91 | 1007.8 |
| 20260506030946 | 55 | 270 | 0.0 | 0.0 | 0.00 | 0.00 | 0.00 | 91 | 1008.1 |
| 20260506025946 | 55 | 293 | 0.0 | 0.9 | 0.00 | 0.00 | 0.00 | 91 | 1008.1 |
| 20260506024944 | 55 | 270 | 0.9 | 0.9 | 0.00 | 0.00 | 0.00 | 91 | 1007.8 |
| 20260506023944 | 55 | 248 | 0.0 | 0.0 | 0.00 | 0.00 | 0.00 | 91 | 1007.8 |
| 20260506022912 | 55 | 23 | 0.0 | 0.0 | 0.00 | 0.00 | 0.00 | 91 | 1008.1 |
| 20260506021810 | 56 | 248 | 0.0 | 0.0 | 0.00 | 0.00 | 0.00 | 91 | 1008.5 |
| 20260506020809 | 56 | 270 | 0.0 | 0.0 | 0.00 | 0.00 | 0.00 | 91 | 1008.5 |
| 20260506015737 | 56 | 248 | 0.0 | 0.0 | 0.00 | 0.00 | 0.00 | 91 | 1008.5 |
| 20260506014737 | 56 | 248 | 0.0 | 0.0 | 0.00 | 0.00 | 0.00 | 91 | 1008.8 |
| 20260506013735 | 56 | 158 | 0.0 | 0.0 | 0.00 | 0.00 | 0.00 | 91 | 1009.1 |
| 20260506012735 | 56 | 158 | 0.0 | 0.0 | 0.00 | 0.00 | 0.00 | 91 | 1008.8 |
| 20260506011734 | 56 | 270 | 0.0 | 0.0 | 0.00 | 0.00 | 0.00 | 91 | 1008.8 |
| 20260506010733 | 56 | 293 | 0.0 | 0.0 | 0.00 | 0.00 | 0.00 | 91 | 1009.1 |
| 20260506005732 | 56 | 293 | 0.0 | 0.0 | 0.00 | 0.00 | 0.00 | 91 | 1009.1 |
| 20260506004731 | 57 | 293 | 0.0 | 0.0 | 0.00 | 0.00 | 0.00 | 90 | 1009.1 |
| 20260506003659 | 57 | 338 | 0.0 | 0.0 | 0.00 | 0.00 | 0.00 | 90 | 1009.5 |
| 20260506002658 | 57 | 135 | 0.0 | 0.0 | 0.00 | 0.00 | 0.00 | 90 | 1009.1 |
| 20260506001657 | 57 | 180 | 0.0 | 0.0 | 0.00 | 0.00 | 0.00 | 90 | 1009.5 |
| 20260506000656 | 57 | 158 | 0.0 | 0.9 | 0.00 | 0.00 | 0.00 | 90 | 1010.2 |
| 20260505235655 | 57 | 270 | 0.9 | 3.5 | 0.00 | 0.00 | 0.00 | 90 | 1010.5 |
| 20260505234654 | 57 | 270 | 3.5 | 3.5 | 0.00 | 0.00 | 0.00 | 90 | 1010.5 |